Regional Weather Roundup
Issued by NWS Kansas City/Pleasant Hill, MO

Home | Current Version | Previous Version | Graphics & Text | Print | Product List | Glossary Off
Versions: 1 2 3 4 5 6 7 8 9 10 11 12 13 14 15 16 17 18 19 20 21 22 23 24 25 26 27 28 29 30 31 32 33 34 35 36 37 38 39 40 41 42 43 44 45 46 47 48 49 50

000
ASUS43 KEAX 132111
RWREAX

WEATHER ROUNDUP FOR EASTERN KANSAS AND NORTHWEST MISSOURI
NATIONAL WEATHER SERVICE KANSAS CITY/PLEASANT HILL MO
400 PM CDT SUN JUL 13 2014

KSZ040-057-103>105-MOZ028-029-037-043-132200-
...KANSAS CITY METROPOLITAN AREA...

CITY           SKY/WX    TMP DP  RH WIND       PRES   REMARKS
K.C. INTL      PTSUNNY   85  70  60 N6        30.01S
K.C. DOWNTOWN  MOSUNNY   86  72  62 N6        29.98S HX  92
LEES SUMMIT    CLOUDY    83  72  69 N6        30.00S
OLATHE - IXD   CLOUDY    85  72  65 N6        30.00F HX  91
OLATHE - OJC   CLOUDY    84  72  67 VRB5      29.99F
LAWRENCE       PTSUNNY   87  72  60 N10       29.99F HX  93

$$

MOZ001>008-011>017-020>025-030>033-038>040-044>046-053-054-132200-
...NORTHERN AND CENTRAL MISSOURI...

CITY           SKY/WX    TMP DP  RH WIND       PRES   REMARKS
ST. JOSEPH     SUNNY     85  71  63 NW6       30.00F HX  90
MOSBY          PTCLDY    84  68  58 N7        29.99S
WARRENSBURG    CLOUDY    79  72  78 S3        29.99S
WHITEMAN AFB   LGT RAIN  80  67  64 S6        29.98F
CLINTON        PTSUNNY   82  73  74 CALM      30.00S
SEDALIA        LGT RAIN  82  73  74 CALM      30.00F
WARSAW         NOT AVBL
MARSHALL         N/A     84  75  74 NW9       29.98F HAZE    HX  92
CHILLICOTHE      N/A     87  68  52 VRB5      29.99F HX  90
MOBERLY        MOSUNNY   84  72  65 NW5       29.99
KIRKSVILLE     SUNNY     86  66  51 N5        29.99F

$$

MOZ041-047>049-056>058-063>065-088>090-097-132200-
...EASTERN AND SOUTHERN MISSOURI...

CITY           SKY/WX    TMP DP  RH WIND       PRES   REMARKS
ST. LOUIS INTL PTSUNNY   89  70  53 SW8       29.95F HX  94
SPIRIT OF STL  PTSUNNY   87  72  60 SW5       29.94F HX  93
COLUMBIA       PTSUNNY   83  71  67 NW6       29.98S
JEFFERSON CITY LGT RAIN  84  71  65 NW5       29.97R
MEXICO         MOSUNNY   88  75  66 W5        29.97F HX  97
ROLLA          PTSUNNY   86  66  51 W8        29.97F
LEBANON        SUNNY     91  63  38 SW8       29.98F HX  92
OSAGE BEACH    MOSUNNY   86  70  58 NW3       29.97F HX  90
SPRINGFIELD    MOSUNNY   90  68  48 S10       29.97F HX  94
BRANSON        MOSUNNY   95  66  38 SW6       30.02F HX  98
NEVADA         MOSUNNY   88  72  58 N8        29.98S HX  94
JOPLIN         PTSUNNY   93  68  43 W16       29.96F HX  97
WEST PLAINS    SUNNY     88  72  58 S9        30.02F HX  94

$$

IAZ060-094-KSZ022-034>040-054-083-096-NEZ052-066-093-132200-
...KANSAS...SOUTHEAST NEBRASKA AND IOWA...

CITY           SKY/WX    TMP DP  RH WIND       PRES   REMARKS
TOPEKA         MOSUNNY   88  70  55 N6        30.01S HX  93
MANHATTAN      MOSUNNY   89  66  46 VRB5      30.02F HX  91
EMPORIA        CLOUDY    84  70  62 VRB5      30.02R
CHANUTE        SUNNY     90  67  46 CALM      29.98F HX  93
WICHITA        PTSUNNY   87  69  54 N14G20    30.02F HX  91
OMAHA          PTSUNNY   87  64  46 NW6       29.99F
LINCOLN        MOSUNNY   92  59  33 VRB7      30.02F HX  91
FALLS CITY     PTSUNNY   86  70  58 NW7       30.00F HX  90
LAMONI         MOSUNNY   84  67  56 N7        29.99F
DES MOINES     MOSUNNY   85  64  49 NW15G24   29.96S

$$




USA.gov is the U.S. government's official web portal to all federal, state and local government web resources and services.